EHI
0 0 0 0 0 0 0 0 0 0 0 0 0 0 0 0 0 0 0 0 1 3 2 1 0 0 0 0 1 2 2 2 2 2 2 2 1 1 2 2 1 0 0
0 0 0 0 0 0 0 0 0 0 0 0 0 0 0 0 0 0 0 0 0 1 1 1 1 1 1 0 1 1 1 1 1 1 1 1 0 0 1 1 1 0 0
0 0 0 0 0 0 0 0 0 0 0 0 0 0 0 0 0 0 0 0 0 0 0 0 1 1 1 1 1 1 1 2 1 0 0 0 0 0 0 0 0 0 0
0 0 0 0 0 0 0 0 0 0 0 0 0 0 0 0 0 0 0 0 0 0 0 0 0 1 1 1 1 1 2 2 1 0 0 0 0 0 0 0 0 0 0
0 0 0 0 0 0 0 0 0 0 0 0 0 0 0 0 0 0 0 0 0 0 0 0 0 1 2 2 2 2 1 1 1 0 0 0 0 0 0 0 0 0 0
0 0 0 0 0 0 0 0 0 0 0 0 0 0 0 0 0 0 0 0 0 0 0 0 0 1 1 1 2 2 1 0 0 0 0 0 0 0 0 0 0 0 0
0 0 0 0 0 0 0 0 0 0 0 0 0 0 0 0 0 0 0 0 0 0 0 0 0 0 0 0 1 1 0 0 0 0 0 0 0 0 0 0 0 0 0
0 0 0 0 0 0 0 0 0 0 0 0 0 0 0 0 0 0 0 0 0 0 0 0 0 0 0 0 0 0 0 0 0 0 0 0 0 0 0 0 0 0 0
0 0 0 0 0 0 0 0 0 0 0 0 0 0 0 0 0 0 0 0 0 0 0 0 0 0 0 0 0 0 0 0 0 0 0 0 0 0 0 0 0 0 0
0 0 0 0 0 0 0 0 0 0 0 0 0 0 0 0 0 0 0 0 0 0 0 0 0 0 0 0 0 0 0 0 0 0 0 0 0 0 0 0 0 0 0
0 0 0 0 0 0 0 0 0 0 0 0 0 0 0 0 0 0 0 0 0 0 0 0 0 0 0 0 0 0 0 0 0 0 0 0 0 0 0 0 0 0 0
0 0 0 0 0 0 0 0 0 0 0 0 0 0 0 0 0 0 0 0 0 0 0 0 0 0 0 0 0 0 0 0 0 0 0 0 0 0 0 0 0 0 0
0 0 0 0 0 0 0 0 0 0 0 0 0 0 0 0 0 0 0 0 0 0 0 0 0 0 0 0 0 0 0 0 0 0 0 0 0 0 0 0 0 0 0
0 0 0 0 0 0 0 0 0 0 0 0 0 0 0 0 0 0 0 0 0 0 0 0 0 0 0 0 0 0 0 0 0 0 0 0 0 0 0 0 0 0 0
0 0 0 0 0 0 0 0 0 0 0 0 0 0 0 0 0 0 0 0 0 0 0 0 0 0 0 0 0 0 0 0 0 0 0 0 0 0 0 0 0 0 0
0 0 0 0 0 0 0 0 0 0 0 0 0 0 0 0 0 0 0 0 0 0 0 0 0 0 0 0 0 0 0 0 0 0 0 0 0 0 0 0 0 0 0
0 0 0 0 0 0 0 0 0 0 0 0 0 0 0 0 0 0 0 0 0 0 0 0 0 0 0 0 0 0 0 0 0 0 0 0 0 0 0 0 0 0 0
0 0 0 0 0 0 0 0 0 0 0 0 0 0 0 0 0 0 0 0 0 0 0 0 0 0 0 0 0 0 0 0 0 0 0 0 0 0 0 0 0 0 0
0 0 0 0 0 0 0 0 0 0 0 0 0 0 0 0 0 0 0 0 0 0 0 0 0 0 0 0 0 0 0 0 0 0 0 0 0 0 0 0 0 0 0
0 0 0 0 0 0 0 0 0 0 0 0 0 0 0 0 0 0 0 0 0 0 0 0 0 0 0 0 0 0 0 0 0 0 0 0 0 0 0 0 0 0 0
0 0 0 0 0 0 0 0 0 0 0 0 0 0 0 0 0 0 0 0 0 0 0 0 0 0 0 0 0 0 0 0 0 0 0 0 0 0 0 0 0 0 0
0 0 0 0 0 0 0 0 0 0 0 0 0 0 0 0 0 0 0 0 0 0 0 0 0 0 0 0 0 0 0 0 0 0 0 0 0 0 0 0 0 0 0
0 0 0 0 0 0 0 0 0 0 0 0 0 0 0 0 0 0 0 0 0 0 0 0 0 0 0 0 0 0 0 0 0 0 0 0 0 0 0 0 0 0 0
0 0 0 0 0 0 0 0 0 0 0 0 0 0 0 0 0 0 0 0 0 0 0 0 0 0 0 0 0 0 0 0 0 0 0 0 0 0 0 0 0 0 0
0 0 0 0 0 0 0 0 0 0 0 0 0 0 0 0 0 0 0 0 0 0 0 0 0 0 0 0 0 0 0 0 0 0 0 0 0 0 0 0 0 0 0
0 0 0 0 0 0 0 0 0 0 0 0 0 0 0 0 0 0 0 0 0 0 0 0 0 0 0 0 0 0 0 0 0 0 0 0 0 0 0 0 0 0 0
Wind_Speed
3 3 3 2 3 3 3 3 3 5 5 6 6 7 7 7 6 6 6 12 13 13 12 11 10 10 10 10 9 9 8 8 8 8 8 8 8 7 6 6 5 5 4
3 3 3 3 3 3 3 3 4 4 4 5 6 7 7 7 7 6 6 8 13 13 13 12 12 11 11 11 11 10 9 9 9 8 8 8 8 8 7 7 6 5 4
3 3 3 3 3 2 2 3 4 4 4 5 6 7 6 7 6 7 7 5 6 11 13 13 13 13 12 12 12 12 10 9 9 9 9 8 8 8 8 7 6 5 5
5 4 3 3 3 2 2 2 2 3 4 4 5 5 5 5 7 6 6 6 5 6 10 14 14 14 13 13 12 12 12 11 10 10 10 10 10 9 9 8 8 7 6
5 4 3 3 3 2 2 2 3 3 4 4 5 5 5 5 5 6 6 7 7 6 6 9 12 14 15 14 13 13 12 12 12 11 11 11 10 10 9 8 7 7 6
5 4 3 3 3 2 2 3 4 3 3 3 5 5 5 5 5 5 6 6 6 7 7 7 6 8 13 14 14 13 12 12 12 12 12 11 10 9 9 8 7 6 6
5 5 3 4 3 3 2 3 3 5 3 3 4 4 5 6 6 5 5 5 6 7 7 7 6 5 5 11 13 14 13 12 11 11 11 10 10 9 9 8 7 7 6
5 4 4 3 3 2 3 2 2 2 2 0 0 2 3 4 4 5 4 5 6 5 6 7 7 6 6 5 9 14 14 12 11 11 10 10 9 9 9 9 9 8 7
5 4 5 4 3 2 3 2 1 1 2 2 2 2 0 2 3 4 5 5 5 5 5 5 7 7 7 6 6 11 13 12 12 12 11 11 10 9 9 9 9 8 8
4 4 4 4 4 3 3 2 2 1 0 1 2 2 3 2 0 3 3 4 5 6 6 5 6 6 7 6 8 12 13 13 13 12 12 11 10 9 9 9 9 8 8
3 4 3 3 3 3 4 4 3 2 1 1 1 1 2 1 1 1 3 3 3 4 4 5 5 5 6 6 6 10 12 12 12 12 11 11 11 10 10 10 9 9 9
2 4 3 3 3 3 4 3 3 4 3 3 2 2 1 1 1 1 2 2 2 3 3 4 4 4 4 5 8 10 10 11 11 11 11 10 10 10 10 10 10 10 10
2 3 2 2 3 3 3 3 3 3 4 3 3 2 2 2 1 1 1 2 2 2 2 3 3 3 3 4 5 7 9 10 10 10 10 10 10 10 10 10 10 10 10
2 2 3 3 3 3 3 3 3 3 3 4 4 3 2 2 2 2 1 0 2 2 2 2 2 3 3 3 5 5 6 9 9 9 9 8 9 9 10 10 10 10 10
2 2 3 3 3 3 3 3 3 3 3 3 3 3 2 3 2 2 1 1 1 0 2 2 1 2 2 3 4 3 4 8 8 8 8 7 8 8 9 9 9 9 9
2 3 3 3 3 4 3 3 3 3 4 3 2 3 2 2 2 2 1 1 2 1 1 2 1 2 2 2 3 3 3 3 5 7 7 7 8 8 8 9 9 9 9
3 3 3 3 3 3 4 3 2 3 3 3 3 3 3 2 2 1 1 1 1 1 0 1 1 1 1 2 2 2 2 2 3 6 6 7 7 7 7 8 8 8 9
4 3 3 3 3 3 3 3 3 2 2 2 2 2 2 2 1 1 1 1 1 2 1 1 0 1 1 2 3 3 3 2 2 5 5 5 6 6 7 7 7 7 7
4 4 4 4 4 3 3 3 3 2 2 2 1 1 1 1 1 1 0 0 1 1 2 1 1 1 1 2 2 2 2 2 2 1 1 2 4 5 5 5 6 6 7
4 4 4 4 4 4 4 3 3 2 2 2 1 1 1 1 1 0 0 0 1 1 1 2 2 1 2 2 3 3 2 2 2 3 2 2 1 1 2 3 4 5 6
4 4 4 4 3 3 3 3 3 3 3 3 3 2 1 1 2 2 2 2 1 1 1 2 2 2 2 2 3 3 3 3 2 2 3 3 3 2 2 1 2 4 5
4 4 4 4 4 3 3 2 4 4 4 4 3 3 3 3 3 3 1 2 4 3 3 3 3 3 3 3 3 4 4 4 4 2 4 4 3 4 3 3 3 4 6
4 4 4 4 4 4 5 5 6 5 4 3 3 3 2 2 3 4 4 6 4 4 5 5 4 4 4 4 5 5 5 5 5 4 5 5 4 5 4 2 1 4 6
5 5 5 4 4 3 5 5 6 6 4 4 4 4 4 3 3 3 3 4 3 3 4 5 5 5 5 5 5 6 6 7 6 3 4 6 5 5 5 4 3 4 6
5 5 5 5 5 5 6 6 6 5 4 5 4 4 4 4 1 3 4 4 4 4 3 4 4 5 4 5 6 5 5 6 6 4 3 5 6 7 6 6 4 5 7
5 5 5 5 6 5 5 6 8 5 5 4 4 4 3 4 2 4 5 5 6 5 5 4 6 7 7 6 7 7 6 6 6 5 3 5 6 6 6 5 5 5 6
Wind_Direction
38 46 59 52 47 56 75 69 66 70 72 70 67 66 67 63 63 66 70 54 47 51 55 58 60 59 58 56 52 50 51 50 45 43 44 44 43 46 50 54 61 62 62
37 33 54 56 50 48 51 70 80 82 76 74 72 67 59 64 63 66 71 75 59 51 50 54 56 57 57 54 49 46 48 49 47 46 48 50 48 47 48 51 54 59 60
36 38 43 56 54 66 77 70 90 87 89 89 79 71 65 57 62 64 63 58 71 65 53 51 53 55 55 54 49 45 48 51 49 48 50 50 49 46 44 43 50 60 65
41 43 42 47 48 62 80 84 88 98 90 82 77 70 71 66 62 62 68 66 54 60 64 55 52 51 51 52 48 46 52 53 50 49 50 49 48 45 41 43 48 57 62
38 55 41 33 51 64 70 87 86 92 94 90 87 75 65 64 58 57 61 61 62 55 59 67 60 52 47 47 46 45 49 51 50 50 48 46 44 41 40 41 44 51 59
36 45 56 49 48 71 77 94 101 93 93 99 91 83 71 72 63 54 56 59 56 56 53 53 61 62 52 45 41 41 44 47 49 49 46 41 39 38 36 34 33 45 58
44 47 44 52 44 66 72 98 113 119 113 117 124 110 92 69 65 61 51 58 63 55 55 55 47 45 59 56 41 37 39 44 47 49 47 41 38 37 36 32 39 51 55
43 42 50 60 61 74 81 90 116 122 112 133 199 161 140 117 75 62 59 54 57 58 54 53 49 47 42 51 50 36 30 35 42 44 44 42 41 41 39 37 43 49 47
45 43 48 54 51 61 76 80 111 146 135 97 13 331 318 90 113 84 63 64 60 56 53 48 47 43 41 44 45 41 29 30 36 39 40 39 39 40 39 36 39 42 38
60 48 55 57 60 58 69 71 74 90 128 129 96 27 26 52 190 128 107 77 63 57 52 45 43 42 37 42 48 39 30 29 31 34 36 36 36 37 38 35 34 35 32
68 65 56 59 63 66 67 64 61 55 62 48 72 89 89 93 344 117 125 118 93 67 53 46 43 39 35 40 40 39 32 30 30 32 34 33 33 34 36 34 30 29 26
89 78 71 74 72 70 72 69 71 69 55 58 52 55 53 76 87 111 126 128 108 88 71 52 41 36 31 38 43 32 32 32 31 31 32 32 31 31 31 30 28 26 24
106 92 92 86 79 78 78 77 79 71 73 70 59 57 50 48 25 25 121 129 118 110 95 81 51 36 30 32 42 15 41 30 29 29 30 32 32 32 30 27 26 26 26
107 107 108 104 99 98 101 93 86 81 79 83 76 71 70 62 40 26 17 149 145 123 101 80 70 37 24 26 21 337 44 32 26 27 29 32 32 31 29 26 24 22 21
145 144 138 129 122 117 111 110 97 98 90 85 89 91 80 82 59 45 32 338 318 124 97 81 64 43 18 27 359 3 34 35 24 25 28 31 31 29 26 24 21 20 19
166 170 163 148 137 131 125 114 106 97 106 97 84 87 82 84 75 66 43 29 354 335 39 62 42 36 24 19 14 360 33 42 31 27 25 24 24 24 22 21 20 20 19
179 180 176 168 152 146 140 135 127 121 120 116 116 108 99 74 75 70 54 45 29 6 73 70 59 37 29 1 10 354 359 356 47 39 23 19 19 19 17 15 16 16 16
188 191 182 181 165 160 157 152 150 139 130 118 116 121 113 109 83 40 17 42 32 348 318 306 67 359 347 350 343 338 344 359 18 55 30 20 18 18 16 12 11 9 9
192 194 194 191 181 179 173 173 174 169 165 156 164 164 145 141 144 108 321 23 17 345 314 292 322 347 326 336 324 320 330 337 340 63 73 42 27 14 12 9 7 5 4
196 197 195 194 191 190 190 186 192 198 197 193 200 213 232 248 286 267 242 303 296 283 290 290 299 311 316 319 308 312 313 321 325 331 337 318 309 303 345 359 359 357 353
200 196 192 193 192 201 207 210 203 211 212 205 202 210 205 25 12 342 327 315 289 272 266 274 279 287 293 303 312 310 309 308 308 320 307 304 296 296 288 273 335 351 344
195 189 195 196 199 202 161 214 244 223 216 216 218 215 188 195 184 198 254 314 317 294 290 279 279 286 298 301 304 299 306 307 308 323 301 300 298 298 303 319 6 343 329
186 191 198 199 207 190 174 202 228 242 232 235 234 223 217 204 218 215 201 214 227 250 272 282 283 291 296 305 298 294 296 298 302 319 307 295 293 293 292 303 323 311 311
188 196 200 204 211 196 182 203 218 232 236 235 236 237 231 227 230 248 240 244 248 237 243 253 271 285 296 299 289 291 295 289 283 281 292 291 295 292 292 282 226 271 286
197 200 202 207 211 203 186 202 218 226 231 232 231 239 244 238 198 246 248 250 252 247 232 246 277 282 290 290 288 279 280 281 286 284 277 286 297 297 288 278 252 233 253
204 205 205 215 218 220 180 197 223 227 232 231 225 223 223 239 216 239 247 253 257 261 261 246 241 241 250 244 242 257 271 277 286 288 286 284 292 300 291 276 283 275 266